User: anonymous   Login
Location: Pallagorio
(39.3000°N, 16.9000°E)
Time: 15:28:21
(UTC+00:00)
Language:

NOSS 3-1 (A) - Orbit

View from above orbital plane
View from above orbital plane
View from above satellite
View from above satellite

Ground track
Ground track

The orbit data is extracted from the following two-line orbital elements,

1 26905U 01040A   21106.80559228 0.00000000  00000-0  00000-0 0    09
2 26905  63.4042  55.3019 0498700   1.7701 358.2299 13.40793920    06
Epoch (UTC): 16 April 2021 19:20:03
Eccentricity: 0.0498700
inclination: 63.4042°
perigee height: 733 km
apogee height: 1479 km
right ascension of ascending node: 55.3019°
argument of perigee: 1.7701°
revolutions per day: 13.40793920
mean anomaly at epoch: 358.2299°
orbit number at epoch: 0

The dashed part of the orbit path shows where the satellite is in the earth's shadow,  

DLR